"2009-12-11 00:00:00",1492126,3.933,143,7.416,1.101,-2.381,96.57558,-9.42,-8.03,47.31,0,109,13.79,-8.70,105.0
"2009-12-11 00:00:30",1492127,4.444,147.7,5.521,0.681,-1.489,96.56509,-9.44,-8.01,47.85,0,109,13.79,-8.73,109.7
"2009-12-11 00:01:00",1492128,4.436,141.6,4.075,0.61,-1.471,96.56112,-9.45,-8.02,48.03,0,109,13.79,-8.74,103.6
"2009-12-11 00:01:30",1492129,3.53,136.2,5.814,1.111,-2.828,96.56112,-9.45,-8.08,47.75,0,109,13.8,-8.74,98.2
"2009-12-11 00:02:00",1492130,3.622,140.6,4.906,0.782,-2.172,96.56112,-9.45,-8.1,47.42,0,109,13.8,-8.74,102.6
"2009-12-11 00:02:30",1492131,1.886,135.5,6.143,0.845,-5.491,96.56112,-9.45,-8.18,47.09,0,109,13.8,-8.74,97.5
"2009-12-11 00:03:00",1492132,2.605,147.5,8.26,1.046,-3.642,96.56112,-9.45,-8.14,46.96,0,109,13.8,-8.74,109.5
"2009-12-11 00:03:30",1492133,0.923,151.2,16.84,0.784,-5.605,96.55402,-9.47,-8.22,46.54,0,109,13.8,-8.75,113.2
"2009-12-11 00:04:00",1492134,2.243,162.7,17.51,1.144,-3.158,96.54295,-9.5,-8.11,46.29,0,109,13.8,-8.78,124.7
"2009-12-11 00:04:30",1492135,2.433,154.2,7.577,0.989,-3.728,96.54433,-9.5,-8.13,46.13,0,109,13.8,-8.78,116.2
"2009-12-11 00:05:00",1492136,2.568,155.4,7.281,1.059,-4.633,96.54001,-9.51,-8.36,45.89,0,109,13.8,-8.79,117.4
"2009-12-11 00:05:30",1492137,1.585,145.9,4.36,1.027,-5.593,96.54263,-9.5,-8.24,46.26,0,109,13.81,-8.78,107.9
"2009-12-11 00:06:00",1492138,2.49,142,8.9,1.082,-4.007,96.54628,-9.49,-8.21,46.75,0,109,13.81,-8.77,104.0
"2009-12-11 00:06:30",1492139,2.585,149.6,6.192,1.05,-3.258,96.54844,-9.49,-8.2,47.05,0,109,13.81,-8.77,111.6
"2009-12-11 00:07:00",1492140,2.07,144,4.89,1.159,-3.743,96.55173,-9.48,-8.14,46.91,0,109,13.81,-8.76,106.0
"2009-12-11 00:07:30",1492141,1.935,148,13.62,1.159,-3.655,96.55512,-9.47,-8.16,46.53,0,109,13.81,-8.75,110.0
"2009-12-11 00:08:00",1492142,0.241,6.533,44.77,0.338,-7.679,96.56219,-9.45,-8.4,45.83,0,109,13.84,-8.73,328.5
"2009-12-11 00:08:30",1492143,2.395,356.2,15.08,1.693,-6.53,96.56097,-9.46,-8.24,45.44,0,109,13.81,-8.74,318.2
"2009-12-11 00:09:00",1492144,1.947,337.6,5.346,0.756,-7.287,96.55693,-9.47,-8.27,45.11,0,109,13.81,-8.75,299.6
"2009-12-11 00:09:30",1492145,2.955,355.3,7.817,0.531,-3.614,96.55638,-9.47,-8.2,44.93,0,109,13.81,-8.75,317.3
"2009-12-11 00:10:00",1492146,2.41,42.35,78.14,0.665,-3.268,96.55721,-9.46,-8.11,44.96,0,109,13.82,-8.75,4.3
"2009-12-11 00:10:30",1492147,1.841,146.3,9.4,0.996,-4.731,96.54576,-9.49,-8.23,44.93,0,109,13.81,-8.78,108.3
"2009-12-11 00:11:00",1492148,0.874,147.1,2.831,0.121,-7.442,96.53496,-9.52,-8.43,45.12,0,109,13.85,-8.80,109.1
"2009-12-11 00:11:30",1492149,1.537,147.2,3.735,0.883,-6.829,96.52645,-9.54,-8.41,45.57,0,109,13.81,-8.82,109.2
"2009-12-11 00:12:00",1492150,2.196,149.3,5.999,1.133,-5.199,96.52588,-9.54,-8.32,46.1,0,109,13.82,-8.83,111.3
"2009-12-11 00:12:30",1492151,2.394,151.1,5.421,1.18,-3.723,96.52588,-9.54,-8.24,46.54,0,109,13.82,-8.83,113.1
"2009-12-11 00:13:00",1492152,3.112,149.9,5.533,0.894,-2.226,96.52049,-9.56,-8.21,46.81,0,109,13.82,-8.84,111.9
"2009-12-11 00:13:30",1492153,2.716,152.5,6.809,0.899,-2.435,96.50431,-9.6,-8.22,47.09,0,109,13.81,-8.88,114.5
"2009-12-11 00:14:00",1492154,2.371,141.1,5.966,1.131,-4.662,96.49693,-9.62,-8.36,47.08,0,109,13.81,-8.90,103.1
"2009-12-11 00:14:30",1492155,2.016,135.5,5.626,1.122,-5.712,96.4921,-9.63,-8.44,47.13,0,109,13.81,-8.91,97.5
"2009-12-11 00:15:00",1492156,2.392,135.9,5.777,1.168,-4.707,96.49182,-9.63,-8.42,47.26,0,109,13.81,-8.91,97.9
"2009-12-11 00:15:30",1492157,2.601,135.7,6.896,1.186,-3.668,96.49097,-9.63,-8.32,47.46,0,109,13.81,-8.92,97.7
"2009-12-11 00:16:00",1492158,3.447,140.3,5.25,0.834,-2.086,96.47763,-9.67,-8.27,47.5,0,109,13.82,-8.95,102.3
"2009-12-11 00:16:30",1492159,3.542,141.7,5.451,0.809,-2.186,96.46628,-9.7,-8.28,47.67,0,109,13.82,-8.98,103.7
"2009-12-11 00:17:00",1492160,3.012,141.5,5.643,1.103,-3.267,96.46145,-9.71,-8.36,47.94,0,109,13.82,-8.99,103.5
"2009-12-11 00:17:30",1492161,2.597,137,4.874,1.047,-4.238,96.45803,-9.72,-8.34,48.36,0,109,13.82,-9.00,99.0
"2009-12-11 00:18:00",1492162,2.782,137.5,6.798,1.062,-4.363,96.45776,-9.72,-8.49,48.64,0,109,13.82,-9.00,99.5
"2009-12-11 00:18:30",1492163,2.991,143.6,7.013,1.212,-3.502,96.45913,-9.71,-8.35,49.24,0,109,13.82,-9.00,105.6
"2009-12-11 00:19:00",1492164,3.184,147.8,4.664,1.039,-2.739,96.46407,-9.7,-8.33,49.41,0,109,13.83,-8.98,109.8
"2009-12-11 00:19:30",1492165,3.25,153.8,7.027,0.932,-2.581,96.46571,-9.7,-8.27,49.11,0,109,13.83,-8.98,115.8
"2009-12-11 00:20:00",1492166,2.425,145.3,15.5,1.289,-3.675,96.47063,-9.68,-8.41,48.87,0,109,13.83,-8.97,107.3
"2009-12-11 00:20:30",1492167,1.723,103.9,33.12,1.062,-5.204,96.47446,-9.68,-8.39,48.64,0,109,13.83,-8.96,65.9
"2009-12-11 00:21:00",1492168,1.327,39.86,13.37,0.953,-7.325,96.47234,-9.68,-8.58,47.94,0,109,13.83,-8.96,1.9
"2009-12-11 00:21:30",1492169,2.36,58.35,10.47,1.079,-4.925,96.46431,-9.7,-8.41,47.55,0,109,13.84,-8.98,20.3
"2009-12-11 00:22:00",1492170,2.406,73.27,28.61,1.157,-3.979,96.46114,-9.71,-8.41,47.11,0,108.9,13.84,-8.99,35.3
"2009-12-11 00:22:30",1492171,2.655,124.6,21.52,1.239,-3.636,96.45743,-9.72,-8.4,47.31,0,108.9,13.84,-9.00,86.6
"2009-12-11 00:23:00",1492172,3.69,132.8,6.502,0.942,-2.889,96.45629,-9.72,-8.4,48.79,0,109,13.84,-9.00,94.8
"2009-12-11 00:23:30",1492173,3.412,140.1,5.953,1.027,-2.477,96.45487,-9.72,-8.41,50.22,0,109,13.84,-9.01,102.1
"2009-12-11 00:24:00",1492174,3.32,147.5,12.66,1.271,-2.592,96.45657,-9.72,-8.38,51.03,0,109,13.84,-9.00,109.5
"2009-12-11 00:24:30",1492175,3.66,153,10.56,1.004,-2.124,96.45771,-9.72,-8.4,51.36,0,109,13.84,-9.00,115.0
"2009-12-11 00:25:00",1492176,3.079,150.6,6.113,1.129,-3.209,96.46221,-9.71,-8.44,51.57,0,109,13.84,-8.99,112.6
"2009-12-11 00:25:30",1492177,2.909,151.6,8.21,1.315,-3.442,96.46671,-9.69,-8.37,51.86,0,109,13.84,-8.98,113.6
"2009-12-11 00:26:00",1492178,3.283,155.8,7.305,1.198,-3.15,96.48051,-9.66,-8.42,52.11,0,109,13.84,-8.94,117.8
"2009-12-11 00:26:30",1492179,3.136,160.7,7.759,1.093,-2.209,96.48816,-9.64,-8.37,52.58,0,109,13.84,-8.92,122.7
"2009-12-11 00:27:00",1492180,3.106,169.6,11,1.069,-2.694,96.4966,-9.62,-8.33,52.88,0,108.9,13.84,-8.90,131.6
"2009-12-11 00:27:30",1492181,2.818,180.9,8.75,1.077,-2.984,96.51817,-9.56,-8.36,52.37,0,109,13.84,-8.85,142.9
"2009-12-11 00:28:00",1492182,1.647,161.7,6.055,1.157,-4.771,96.53094,-9.53,-8.4,52.04,0,109,13.84,-8.81,123.7
"2009-12-11 00:28:30",1492183,1.125,138.4,43.57,0.889,-6.089,96.54968,-9.48,-8.52,51.6,0,108.9,13.84,-8.77,100.4
"2009-12-11 00:29:00",1492184,1.279,31.95,26.48,1.185,-5.155,96.55877,-9.46,-8.28,51.17,0,109,13.84,-8.74,354.0
"2009-12-11 00:29:30",1492185,2.121,14.67,20.97,1.005,-4.743,96.55877,-9.46,-8.24,49.88,0,109,13.84,-8.74,336.7
"2009-12-11 00:30:00",1492186,2.37,16.75,14.04,1.183,-5.747,96.55877,-9.46,-8.38,48.89,0,109,13.84,-8.74,338.8
"2009-12-11 00:30:30",1492187,3.031,9.72,13.6,0.963,-4.658,96.55877,-9.46,-8.23,48.45,0,109,13.84,-8.74,331.7
"2009-12-11 00:31:00",1492188,3.45,2.097,7.045,1.007,-4.533,96.55849,-9.46,-8.24,48.08,0,109,13.84,-8.74,324.1
"2009-12-11 00:31:30",1492189,2.794,355.4,6.692,1.17,-4.718,96.55224,-9.48,-8.22,47.94,0,108.9,13.84,-8.76,317.4
"2009-12-11 00:32:00",1492190,2.517,27.22,14.65,0.891,-4.62,96.54031,-9.51,-8.26,47.92,0,108.9,13.84,-8.79,349.2
"2009-12-11 00:32:30",1492191,1.085,39.85,15.84,1.22,-6.816,96.53378,-9.52,-8.38,47.86,0,108.9,13.84,-8.81,1.8
"2009-12-11 00:33:00",1492192,0.75,152.1,39.47,0.47,-7.585,96.52867,-9.54,-8.46,47.76,0,108.9,13.87,-8.82,114.1
"2009-12-11 00:33:30",1492193,2.477,155.7,8.08,1.184,-4.979,96.52499,-9.55,-8.34,48.17,0,108.9,13.84,-8.83,117.7
"2009-12-11 00:34:00",1492194,2.759,153.8,8.2,1.112,-3.007,96.52525,-9.55,-8.23,49.03,0,108.9,13.85,-8.83,115.8
"2009-12-11 00:34:30",1492195,3.281,150.1,7.169,0.769,-2.18,96.52552,-9.55,-8.17,49.69,0,108.9,13.85,-8.83,112.1
"2009-12-11 00:35:00",1492196,2.537,140.6,7.947,1.087,-3.13,96.517,-9.57,-8.29,49.86,0,108.9,13.85,-8.85,102.6
"2009-12-11 00:35:30",1492197,1.638,119.3,7.392,1.054,-5.232,96.50167,-9.61,-8.33,49.98,0,108.9,13.85,-8.89,81.3
"2009-12-11 00:36:00",1492198,0.697,104.3,15.55,0.122,-6.974,96.49429,-9.62,-8.49,49.94,0,108.9,13.88,-8.91,66.3
"2009-12-11 00:36:30",1492199,1.978,103.6,16.56,1.241,-5.036,96.49284,-9.63,-8.4,50.04,0,108.9,13.85,-8.91,65.6
"2009-12-11 00:37:00",1492200,1.827,99.2,28,1.147,-3.986,96.49227,-9.63,-8.27,50.03,0,108.9,13.85,-8.91,61.2
"2009-12-11 00:37:30",1492201,2.456,66.42,18.51,0.829,-3.627,96.49391,-9.63,-8.4,49.73,0,108.9,13.86,-8.91,28.4
"2009-12-11 00:38:00",1492202,1.621,96.8,35.93,1.163,-4.72,96.49419,-9.62,-8.33,49.62,0,108.9,13.86,-8.91,58.8
"2009-12-11 00:38:30",1492203,1.984,167.9,36.23,1.041,-3.984,96.49773,-9.62,-8.34,49.54,0,108.9,13.86,-8.90,129.9
"2009-12-11 00:39:00",1492204,0.599,126,23.11,0.889,-7.253,96.48898,-9.64,-8.54,49.32,0,108.9,13.86,-8.92,88.0
"2009-12-11 00:39:30",1492205,0.013,123.7,29.27,0.131,-8.04,96.47922,-9.66,-8.54,49.28,0,108.9,13.89,-8.95,85.7
"2009-12-11 00:40:00",1492206,0.054,0.754,67.17,0.184,-8.52,96.47706,-9.67,-8.54,49.22,0,108.9,13.89,-8.95,322.8
"2009-12-11 00:40:30",1492207,2.321,351.2,12.7,1.376,-5.234,96.4741,-9.68,-8.34,49.23,0,108.9,13.87,-8.96,313.2
"2009-12-11 00:41:00",1492208,3.244,352.6,10.01,0.98,-4.17,96.47874,-9.66,-8.33,48.86,0,108.9,13.87,-8.95,314.6
"2009-12-11 00:41:30",1492209,4.229,357.1,6.101,0.901,-3.528,96.47107,-9.68,-8.31,48.46,0,108.9,13.87,-8.97,319.1
"2009-12-11 00:42:00",1492210,3.971,0.731,6.407,0.938,-5.034,96.45848,-9.72,-8.37,47.94,0,108.9,13.87,-9.00,322.7
"2009-12-11 00:42:30",1492211,3.785,10.71,5.743,1.204,-5.782,96.4499,-9.74,-8.4,47.32,0,108.9,13.87,-9.02,332.7
"2009-12-11 00:43:00",1492212,4.209,15.88,5.22,1.064,-6.51,96.4465,-9.75,-8.49,47.04,0,108.9,13.87,-9.03,337.9
"2009-12-11 00:43:30",1492213,3.249,3.142,5.922,1.124,-5.328,96.42719,-9.8,-8.42,46.96,0,108.9,13.86,-9.08,325.1
"2009-12-11 00:44:00",1492214,3.414,13.21,11.33,0.705,-3.408,96.41497,-9.83,-8.41,46.85,0,108.9,13.86,-9.11,335.2
"2009-12-11 00:44:30",1492215,1.883,91.6,30.93,1.163,-5.846,96.41297,-9.83,-8.48,47.05,0,108.9,13.86,-9.11,53.6
"2009-12-11 00:45:00",1492216,2.743,141.3,6.129,1.042,-4.583,96.39055,-9.89,-8.54,47.65,0,108.9,13.86,-9.17,103.3
"2009-12-11 00:45:30",1492217,1.389,136.7,3.783,0.419,-7.175,96.38088,-9.91,-8.64,48.28,0,108.9,13.87,-9.20,98.7
"2009-12-11 00:46:00",1492218,3.261,149.8,4.243,0.886,-3.115,96.38006,-9.92,-8.62,48.94,0,108.9,13.86,-9.20,111.8
"2009-12-11 00:46:30",1492219,2.456,145.3,6.629,1.147,-4.472,96.37208,-9.94,-8.64,49.49,0,108.9,13.86,-9.22,107.3
"2009-12-11 00:47:00",1492220,3.115,140,13.23,0.88,-3.111,96.36184,-9.96,-8.56,50.07,0,108.9,13.86,-9.24,102.0
"2009-12-11 00:47:30",1492221,2.234,72.94,9.66,1.118,-4.213,96.35755,-9.97,-8.6,50.14,0,108.9,13.86,-9.26,34.9
"2009-12-11 00:48:00",1492222,1.632,15.3,26.93,1.28,-4.868,96.36034,-9.97,-8.62,49.63,0,108.9,13.86,-9.25,337.3
"2009-12-11 00:48:30",1492223,1.934,356.9,11.15,0.894,-7.136,96.35709,-9.97,-8.85,49.18,0,108.9,13.86,-9.26,318.9
"2009-12-11 00:49:00",1492224,1.261,354.2,11.79,0.652,-7.85,96.35311,-9.98,-8.8,48.81,0,108.9,13.87,-9.27,316.2
"2009-12-11 00:49:30",1492225,2.316,20.8,14.05,1.151,-4.47,96.35227,-9.99,-8.65,48.86,0,108.9,13.87,-9.27,342.8
"2009-12-11 00:50:00",1492226,2.162,29.92,27.8,0.816,-4.173,96.34177,-10.01,-8.68,49.15,0,108.9,13.87,-9.30,351.9
"2009-12-11 00:50:30",1492227,1.1,48.9,33.49,1.089,-6.251,96.33094,-10.04,-8.83,49.32,0,108.9,13.87,-9.32,10.9
"2009-12-11 00:51:00",1492228,1.921,165.3,11.82,1.244,-6.368,96.32271,-10.06,-8.87,49.48,0,108.9,13.87,-9.34,127.3
"2009-12-11 00:51:30",1492229,2.054,163.4,8.13,1.038,-5.347,96.31901,-10.07,-8.78,50.06,0,108.9,13.88,-9.35,125.4
"2009-12-11 00:52:00",1492230,2.466,161.2,7.007,1.24,-5.175,96.31901,-10.07,-8.8,50.47,0,108.9,13.88,-9.35,123.2
"2009-12-11 00:52:30",1492231,2.931,153.1,14.22,1.192,-3.746,96.31901,-10.07,-8.75,50.7,0,108.9,13.88,-9.35,115.1
"2009-12-11 00:53:00",1492232,2.919,170.9,12.36,1.084,-2.809,96.31873,-10.07,-8.71,50.81,0,108.9,13.88,-9.35,132.9
"2009-12-11 00:53:30",1492233,2.448,137.8,8.38,1.013,-4.015,96.31901,-10.07,-8.74,50.81,0,108.9,13.88,-9.35,99.8
"2009-12-11 00:54:00",1492234,1.122,98.2,23.05,1.267,-6.056,96.31901,-10.07,-8.96,50.51,0,108.9,13.88,-9.35,60.2
"2009-12-11 00:54:30",1492235,0.222,69.57,16.32,0.076,-7.621,96.31901,-10.07,-8.91,50.47,0,108.9,13.91,-9.35,31.6
"2009-12-11 00:55:00",1492236,1.236,38.36,12.89,1.138,-5.786,96.31901,-10.07,-8.89,50.39,0,108.9,13.88,-9.35,0.4
"2009-12-11 00:55:30",1492237,0.236,348.5,6.1,0.084,-7.595,96.3176,-10.07,-8.96,50.19,0,108.9,13.92,-9.36,310.5
"2009-12-11 00:56:00",1492238,1.791,8.96,18.1,1.187,-4.947,96.30368,-10.11,-8.77,50.25,0,108.9,13.88,-9.39,331.0
"2009-12-11 00:56:30",1492239,2.297,56.79,10.19,0.998,-4.205,96.29488,-10.13,-8.71,50.21,0,108.9,13.89,-9.42,18.8
"2009-12-11 00:57:00",1492240,2.026,123.2,56.09,1.102,-4.867,96.29033,-10.14,-8.89,50.09,0,108.9,13.88,-9.43,85.2
"2009-12-11 00:57:30",1492241,1.433,131.7,11.2,0.788,-6.742,96.28521,-10.16,-8.86,50.48,0,108.9,13.89,-9.44,93.7
"2009-12-11 00:58:00",1492242,2.3,149.5,3.838,0.864,-5.953,96.28493,-10.16,-9.02,50.71,0,108.9,13.89,-9.44,111.5
"2009-12-11 00:58:30",1492243,3.313,157.7,7.313,1.095,-3.593,96.28493,-10.16,-8.79,51.33,0,108.9,13.89,-9.44,119.7
"2009-12-11 00:59:00",1492244,4.206,152.3,7.452,0.558,-1.819,96.2852,-10.16,-8.77,51.77,0,108.9,13.89,-9.44,114.3
"2009-12-11 00:59:30",1492245,3.741,140.9,6.002,0.666,-1.939,96.2852,-10.16,-8.75,52.23,0,108.9,13.89,-9.44,102.9
"2009-12-11 01:00:00",1492246,2.718,120.2,14.24,1.091,-3.39,96.30195,-10.11,-8.79,52.3,0,108.9,13.88,-9.40,82.2
"2009-12-11 01:00:30",1492247,1.189,103.8,12.06,0.929,-6.181,96.32662,-10.05,-9.01,51.51,0,108.9,13.88,-9.33,65.8
"2009-12-11 01:01:00",1492248,1.096,30.73,34.75,1.187,-6.547,96.35583,-9.98,-8.99,50.8,0,108.9,13.88,-9.26,352.7
"2009-12-11 01:01:30",1492249,1.329,12.11,17.98,1.189,-5.855,96.35857,-9.97,-8.81,50.51,0,108.9,13.89,-9.25,334.1
"2009-12-11 01:02:00",1492250,1.109,353,20.56,1.02,-6.666,96.3583,-9.97,-8.89,50.12,0,108.9,13.88,-9.25,315.0
"2009-12-11 01:02:30",1492251,1.762,82.3,72.8,1.036,-4.686,96.35995,-9.97,-8.7,49.97,0,108.9,13.88,-9.25,44.3
"2009-12-11 01:03:00",1492252,2.322,132.8,19.98,1.023,-4.235,96.36131,-9.96,-8.69,49.85,0,108.9,13.89,-9.25,94.8
"2009-12-11 01:03:30",1492253,2.746,162.2,6.075,1.234,-4.523,96.36376,-9.96,-8.72,50.26,0,109,13.88,-9.24,124.2
"2009-12-11 01:04:00",1492254,2.566,160.5,5.369,0.999,-5.029,96.35679,-9.97,-8.68,51.01,0,108.9,13.88,-9.26,122.5
"2009-12-11 01:04:30",1492255,3.873,179.3,7.429,1.05,-2.762,96.35495,-9.98,-8.75,51.45,0,108.9,13.88,-9.26,141.3
"2009-12-11 01:05:00",1492256,3.703,180.4,5.561,1.061,-2.404,96.35482,-9.98,-8.66,51.97,0,108.9,13.88,-9.26,142.4
"2009-12-11 01:05:30",1492257,3.675,177.3,4.897,0.956,-1.907,96.36008,-9.97,-8.67,52.35,0,108.9,13.88,-9.25,139.3
"2009-12-11 01:06:00",1492258,3.279,167.2,6.831,1.056,-3.677,96.36868,-9.94,-8.76,52.54,0,108.9,13.88,-9.23,129.2
"2009-12-11 01:06:30",1492259,2.577,148,6.712,1.011,-4.708,96.3782,-9.92,-8.7,52.63,0,108.9,13.88,-9.20,110.0
"2009-12-11 01:07:00",1492260,1.914,133.3,11.79,1.076,-5.099,96.40258,-9.86,-8.8,51.89,0,108.9,13.88,-9.14,95.3
"2009-12-11 01:07:30",1492261,1.708,115.6,11.66,1.127,-4.693,96.40855,-9.84,-8.72,51.36,0,108.9,13.89,-9.13,77.6
"2009-12-11 01:08:00",1492262,0.746,82.3,9.07,0.946,-5.264,96.41077,-9.84,-8.7,51.07,0,108.9,13.9,-9.12,44.3
"2009-12-11 01:08:30",1492263,1.333,117.5,12.91,1.111,-6.011,96.4127,-9.83,-8.77,50.72,0,108.9,13.9,-9.11,79.5
"2009-12-11 01:09:00",1492264,1.841,133.3,9.2,1.164,-5.056,96.41326,-9.83,-8.58,50.77,0,108.9,13.9,-9.11,95.3
"2009-12-11 01:09:30",1492265,1.537,139.9,5.939,0.927,-6.144,96.41184,-9.83,-8.65,50.85,0,108.9,13.9,-9.12,101.9
"2009-12-11 01:10:00",1492266,2.409,154.1,9.51,1.162,-3.744,96.41183,-9.83,-8.61,51.15,0,108.9,13.9,-9.12,116.1
"2009-12-11 01:10:30",1492267,2.812,164.1,6.071,0.987,-3.499,96.41154,-9.83,-8.58,51.34,0,108.9,13.9,-9.12,126.1
"2009-12-11 01:11:00",1492268,2.105,154.2,10.02,1.059,-3.385,96.41209,-9.83,-8.56,51.43,0,108.9,13.9,-9.12,116.2
"2009-12-11 01:11:30",1492269,1.926,136.5,13.22,1.116,-4.141,96.41237,-9.83,-8.71,51.18,0,108.9,13.9,-9.12,98.5
"2009-12-11 01:12:00",1492270,0.769,91.3,20.46,1.061,-5.876,96.41973,-9.81,-8.68,50.95,0,108.9,13.9,-9.10,53.3
"2009-12-11 01:12:30",1492271,0.887,32.15,25.69,1.142,-6.056,96.42999,-9.79,-8.59,50.63,0,108.9,13.9,-9.07,354.1
"2009-12-11 01:13:00",1492272,1.59,32.12,7.412,1.097,-6.68,96.42676,-9.8,-8.74,50.14,0,108.9,13.9,-9.08,354.1
"2009-12-11 01:13:30",1492273,0.787,33.42,4.77,0.629,-8.39,96.42161,-9.81,-8.77,49.84,0,108.9,13.91,-9.09,355.4
"2009-12-11 01:14:00",1492274,1.759,42.43,5.906,1.141,-5.986,96.41708,-9.82,-8.62,49.58,0,108.9,13.91,-9.10,4.4
"2009-12-11 01:14:30",1492275,2.325,60.93,30.31,0.775,-3.75,96.41512,-9.83,-8.49,49.44,0,108.9,13.91,-9.11,22.9
"2009-12-11 01:15:00",1492276,2.652,136.4,14.54,0.942,-3.718,96.41621,-9.82,-8.55,49.35,0,108.9,13.9,-9.11,98.4
"2009-12-11 01:15:30",1492277,2.322,156.2,8.85,1.138,-4.901,96.41785,-9.82,-8.7,49.75,0,108.9,13.9,-9.10,118.2
"2009-12-11 01:16:00",1492278,2.668,160.1,6.252,1.131,-4.922,96.41304,-9.83,-8.65,50.53,0,108.9,13.9,-9.11,122.1
"2009-12-11 01:16:30",1492279,2.814,157.2,10.58,1.073,-4.772,96.4017,-9.86,-8.67,51.14,0,108.9,13.91,-9.14,119.2
"2009-12-11 01:17:00",1492280,3.619,163.5,6.796,0.991,-2.542,96.39887,-9.87,-8.56,51.7,0,108.9,13.91,-9.15,125.5
"2009-12-11 01:17:30",1492281,3.29,139.2,4.919,0.726,-2.285,96.40592,-9.85,-8.5,51.95,0,108.9,13.91,-9.13,101.2
"2009-12-11 01:18:00",1492282,2.474,122.3,9.07,1.043,-3.276,96.41812,-9.82,-8.56,51.54,0,108.9,13.9,-9.10,84.3
"2009-12-11 01:18:30",1492283,1.858,79.47,21.76,1.109,-4.592,96.42072,-9.81,-8.61,50.53,0,108.9,13.9,-9.09,41.5
"2009-12-11 01:19:00",1492284,0.67,61.54,21.62,0.862,-7.387,96.42153,-9.81,-8.77,49.92,0,108.9,13.9,-9.09,23.5
"2009-12-11 01:19:30",1492285,0.252,119.9,24.47,0.179,-8.17,96.41956,-9.81,-8.77,49.76,0,108.9,13.93,-9.10,81.9
"2009-12-11 01:20:00",1492286,2.112,142.6,10.47,1.045,-4.645,96.41869,-9.82,-8.6,49.77,0,108.9,13.9,-9.10,104.6
"2009-12-11 01:20:30",1492287,2.827,168.1,10.35,0.95,-3.197,96.41676,-9.82,-8.52,50.03,0,108.9,13.9,-9.10,130.1
"2009-12-11 01:21:00",1492288,3.933,195.3,8.81,0.43,-1.186,96.41812,-9.82,-8.46,50.63,0,108.9,13.9,-9.10,157.3
"2009-12-11 01:21:30",1492289,4.605,199.8,4.405,0.635,-0.58,96.41702,-9.82,-8.44,51.12,0,108.9,13.9,-9.10,161.8
"2009-12-11 01:22:00",1492290,3.104,190.8,6.399,1.065,-3.591,96.41867,-9.82,-8.6,51.34,0,108.9,13.9,-9.10,152.8
"2009-12-11 01:22:30",1492291,3.109,184.4,12.71,1.354,-3.741,96.42063,-9.81,-8.68,51.65,0,108.9,13.9,-9.09,146.4
"2009-12-11 01:23:00",1492292,2.371,148.9,6.604,1.096,-5.004,96.45076,-9.74,-8.6,52.05,0,108.9,13.9,-9.02,110.9
"2009-12-11 01:23:30",1492293,3.077,139.1,5.272,1.022,-3.216,96.46182,-9.71,-8.46,52.1,0,108.9,13.9,-8.99,101.1
"2009-12-11 01:24:00",1492294,3.294,138,6.067,0.816,-3.035,96.46948,-9.69,-8.46,51.74,0,109,13.91,-8.97,100.0
"2009-12-11 01:24:30",1492295,2.806,131.2,7.035,1.025,-3.367,96.47063,-9.68,-8.42,51.48,0,108.9,13.91,-8.97,93.2
"2009-12-11 01:25:00",1492296,3.059,151.1,8.16,1.085,-3.094,96.47011,-9.69,-8.47,51.22,0,108.9,13.91,-8.97,113.1
"2009-12-11 01:25:30",1492297,3.05,162.8,6.119,1.252,-3.587,96.47177,-9.68,-8.52,51.31,0,108.9,13.91,-8.96,124.8
"2009-12-11 01:26:00",1492298,3.774,175.5,7.566,1.25,-4.042,96.48283,-9.65,-8.52,51.55,0,108.9,13.91,-8.94,137.5
"2009-12-11 01:26:30",1492299,5.626,187.2,5.428,1.033,-1.273,96.48795,-9.64,-8.43,51.46,0,108.9,13.91,-8.92,149.2
"2009-12-11 01:27:00",1492300,5.75,193.8,4.505,0.751,0.135,96.48938,-9.64,-8.34,50.83,0,108.9,13.91,-8.92,155.8
"2009-12-11 01:27:30",1492301,4.919,186.7,6.192,0.717,-0.9,96.50814,-9.59,-8.32,51.17,0,108.9,13.91,-8.87,148.7
"2009-12-11 01:28:00",1492302,3.185,172.8,6.799,1.334,-3.078,96.54536,-9.49,-8.34,51.57,0,108.9,13.9,-8.78,134.8
"2009-12-11 01:28:30",1492303,2.081,180.4,8.75,1.138,-3.598,96.57692,-9.41,-8.36,50.43,0,108.9,13.9,-8.70,142.4
"2009-12-11 01:29:00",1492304,1.379,171.3,7.882,0.991,-5.605,96.59506,-9.37,-8.35,49.44,0,108.9,13.9,-8.65,133.3
"2009-12-11 01:29:30",1492305,0.6,153.3,10.68,0.713,-7.259,96.61211,-9.33,-8.44,48.56,0,108.9,13.91,-8.61,115.3
"2009-12-11 01:30:00",1492306,0.537,155.2,7.441,0.083,-7.142,96.62094,-9.3,-8.28,48.5,0,108.9,13.94,-8.58,117.2
"2009-12-11 01:30:30",1492307,2.73,152,10.81,0.929,-3.329,96.62064,-9.3,-8.13,48.52,0,108.9,13.91,-8.58,114.0
"2009-12-11 01:31:00",1492308,3.292,158.4,4.182,0.854,-2.561,96.62236,-9.3,-8.09,48.68,0,108.9,13.91,-8.58,120.4
"2009-12-11 01:31:30",1492309,3.871,171.5,7.672,0.84,-2.228,96.62434,-9.29,-8.14,49.22,0,109,13.91,-8.57,133.5
"2009-12-11 01:32:00",1492310,3.248,170.2,7.481,1.069,-3.145,96.62462,-9.29,-8.12,50.01,0,108.9,13.91,-8.57,132.2
"2009-12-11 01:32:30",1492311,2.511,168,8.73,1.195,-5.182,96.62462,-9.29,-8.32,50.18,0,108.9,13.91,-8.57,130.0
"2009-12-11 01:33:00",1492312,2.316,159.3,5.275,1.105,-4.883,96.62434,-9.29,-8.17,50.31,0,108.9,13.91,-8.57,121.3
"2009-12-11 01:33:30",1492313,2.46,135.8,15.19,1.17,-4.511,96.62462,-9.29,-8.14,49.92,0,108.9,13.91,-8.57,97.8
"2009-12-11 01:34:00",1492314,2.549,113.6,16.18,1.077,-3.638,96.62462,-9.29,-8.07,49.3,0,108.9,13.91,-8.57,75.6
"2009-12-11 01:34:30",1492315,2.011,100.2,10.24,1.119,-5.276,96.62379,-9.3,-8.16,48.84,0,108.9,13.91,-8.58,62.2
"2009-12-11 01:35:00",1492316,2.512,102,5.019,1.007,-3.376,96.62434,-9.29,-8.1,48.76,0,108.9,13.9,-8.57,64.0
"2009-12-11 01:35:30",1492317,1.742,97.5,12.75,1.059,-5.167,96.62406,-9.29,-8.12,48.6,0,108.9,13.9,-8.58,59.5
"2009-12-11 01:36:00",1492318,1.933,117.1,10.32,1.184,-5.259,96.62434,-9.29,-8.19,48.32,0,108.9,13.9,-8.57,79.1
"2009-12-11 01:36:30",1492319,2.248,132.2,8.24,1.012,-4.423,96.62406,-9.29,-8.09,48.25,0,108.9,13.9,-8.58,94.2
"2009-12-11 01:37:00",1492320,1.785,128.5,17.88,1.266,-5.419,96.62462,-9.29,-8.06,48.17,0,108.9,13.9,-8.57,90.5
"2009-12-11 01:37:30",1492321,3.191,165.9,16.71,0.824,-2.894,96.62462,-9.29,-8.07,48.26,0,108.9,13.9,-8.57,127.9
"2009-12-11 01:38:00",1492322,3.328,184.1,5.458,0.965,-1.728,96.62209,-9.3,-8.07,48.91,0,108.9,13.9,-8.58,146.1
"2009-12-11 01:38:30",1492323,1.048,138.8,20.23,1.128,-4.227,96.62035,-9.3,-8.14,49.19,0,108.9,13.91,-8.58,100.8
"2009-12-11 01:39:00",1492324,2.206,136.4,16.17,1.329,-4.368,96.63513,-9.27,-8.06,49.42,0,108.9,13.9,-8.55,98.4
"2009-12-11 01:39:30",1492325,1.415,89.8,24.29,1.104,-4.621,96.65247,-9.22,-8.01,48.73,0,108.9,13.91,-8.50,51.8
"2009-12-11 01:40:00",1492326,1.16,57.31,25.37,1.162,-5.546,96.65758,-9.21,-8.1,48.21,0,108.9,13.91,-8.49,19.3
"2009-12-11 01:40:30",1492327,0.241,51.41,7.22,0.034,-8.03,96.6536,-9.22,-8.24,47.91,0,108.9,13.94,-8.50,13.4
"2009-12-11 01:41:00",1492328,1.331,82.2,8.82,1.127,-5.538,96.64365,-9.24,-8.07,47.96,0,108.9,13.91,-8.53,44.2
"2009-12-11 01:41:30",1492329,1.786,79.38,5.568,1.148,-4.977,96.63314,-9.27,-8.02,47.89,0,108.9,13.92,-8.55,41.4
"2009-12-11 01:42:00",1492330,2.045,80.8,6.44,1.043,-5.146,96.63087,-9.28,-8.09,47.73,0,108.9,13.92,-8.56,42.8
"2009-12-11 01:42:30",1492331,2.665,78.9,6.296,1.125,-4.686,96.62603,-9.29,-8.01,47.81,0,108.9,13.92,-8.57,40.9
"2009-12-11 01:43:00",1492332,2.824,75.78,6.494,1.035,-4.965,96.62462,-9.29,-8.01,47.57,0,108.9,13.92,-8.57,37.8
"2009-12-11 01:43:30",1492333,1.6,73.97,1.869,0.088,-7.592,96.62348,-9.3,-8.2,47.44,0,108.9,13.95,-8.58,36.0
"2009-12-11 01:44:00",1492334,2.644,84.8,5.503,1.153,-4.649,96.60757,-9.34,-8.08,47.71,0,108.9,13.92,-8.62,46.8
"2009-12-11 01:44:30",1492335,2.499,89.9,6.639,0.979,-4.102,96.59961,-9.36,-8.04,47.85,0,108.9,13.92,-8.64,51.9
"2009-12-11 01:45:00",1492336,2.78,115.2,9.51,0.944,-3.31,96.59364,-9.37,-8.03,47.81,0,108.9,13.92,-8.65,77.2
"2009-12-11 01:45:30",1492337,2.274,122.7,9.07,1.099,-4.376,96.59052,-9.38,-8.12,47.9,0,108.9,13.92,-8.66,84.7
"2009-12-11 01:46:00",1492338,1.564,138.5,10.09,1.01,-5.7,96.58711,-9.39,-8.15,48.26,0,108.9,13.92,-8.67,100.5
"2009-12-11 01:46:30",1492339,1.127,149.7,8.47,0.424,-6.662,96.56438,-9.45,-8.26,48.44,0,108.9,13.95,-8.73,111.7